EW3086 Weather Reports


time (UTC)temp
F
wind
direction
speed
knots
gust
knots
rain 1hr
in
rain 24hr
in
rain mn
in
humidity
%
barometer
mb
20260508025005 49 224 0.0 0.9 0.01 0.02 0.02 91 1014.1
20260508024505 49 217 0.0 0.9 0.01 0.02 0.02 90 1014.1
20260508024005 49 211 0.0 0.9 0.02 0.02 0.02 90 1014.1
20260508023505 49 211 0.0 0.9 0.02 0.02 0.02 90 1014.2
20260508023026 49 211 0.0 0.9 0.02 0.02 0.02 90 1014.2
20260508022505 49 211 0.0 0.9 0.02 0.02 0.02 89 1014.2
20260508022005 49 210 0.0 0.9 0.02 0.02 0.02 89 1014.2
20260508021505 49 138 0.0 0.9 0.02 0.02 0.02 89 1014.2
20260508021005 49 117 0.0 0.9 0.02 0.02 0.02 88 1014.2
20260508020505 49 108 0.0 0.9 0.02 0.02 0.02 88 1014.1
20260508020005 49 109 0.0 0.9 0.02 0.02 0.02 87 1014.2
20260508015505 50 84 0.0 0.9 0.02 0.02 0.02 86 1014.1
20260508015005 50 84 0.0 2.6 0.01 0.01 0.01 85 1014.1
20260508014504 50 94 0.0 2.6 0.01 0.01 0.01 83 1014.1
20260508014005 50 144 0.0 0.9 0.00 0.00 0.00 81 1014.2
20260508013504 50 109 0.0 0.9 0.00 0.00 0.00 80 1014.1
20260508013005 50 150 0.0 1.7 0.00 0.00 0.00 79 1014.1
20260508012505 50 168 0.0 1.7 0.00 0.00 0.00 79 1014.2
20260508012005 50 215 0.0 0.9 0.00 0.00 0.00 78 1014.2
20260508011525 50 218 0.0 0.9 0.00 0.00 0.00 77 1014.2
20260508011005 50 218 0.0 0.9 0.00 0.00 0.00 77 1014.2
20260508010504 50 182 0.0 0.9 0.00 0.00 0.00 76 1014.2
20260508010005 50 212 0.0 1.7 0.00 0.00 0.00 76 1014.3
20260508005526 50 216 0.0 1.7 0.00 0.00 0.00 76 1014.3
20260508005005 50 96 0.0 0.9 0.00 0.00 0.00 76 1014.3
20260508004504 50 206 0.0 0.9 0.00 0.00 0.00 76 1014.3
20260508004005 50 210 0.0 0.9 0.00 0.00 0.00 76 1014.4
20260508003505 50 213 0.0 1.7 0.00 0.00 0.00 76 1014.4
20260508003026 50 212 0.0 1.7 0.00 0.00 0.00 75 1014.4
20260508002526 50 210 0.0 0.9 0.00 0.00 0.00 76 1014.4
20260508002004 50 210 0.0 0.9 0.00 0.00 0.00 76 1014.4
20260508001504 50 215 0.0 0.9 0.00 0.00 0.00 76 1014.5
20260508001004 50 215 0.0 0.9 0.00 0.00 0.00 76 1014.5
20260508000504 50 212 0.0 1.7 0.00 0.00 0.00 76 1014.5
20260508000026 50 213 0.0 2.6 0.00 0.00 0.00 75 1014.5
20260507235526 50 215 0.0 2.6 0.00 0.00 0.00 76 1014.5
20260507235004 50 216 0.0 1.7 0.00 0.00 0.00 76 1014.6
20260507234505 50 217 0.0 0.9 0.00 0.00 0.00 76 1014.6
20260507234026 50 214 0.0 0.9 0.00 0.00 0.00 77 1014.6
20260507233504 50 210 0.0 0.9 0.00 0.00 0.00 76 1014.5
20260507233004 50 200 0.0 1.7 0.00 0.00 0.00 76 1014.6
20260507232504 50 201 0.0 1.7 0.00 0.00 0.00 76 1014.5
20260507232005 50 215 0.0 0.9 0.00 0.00 0.00 77 1014.6
20260507231504 50 214 0.0 0.9 0.00 0.00 0.00 77 1014.6
20260507231004 50 210 0.0 1.7 0.00 0.00 0.00 77 1014.6
20260507230525 50 209 0.0 1.7 0.00 0.00 0.00 76 1014.6
20260507230008 50 211 0.0 0.9 0.00 0.00 0.00 77 1014.6
20260507225525 50 211 0.0 0.9 0.00 0.00 0.00 77 1014.6
20260507225005 50 207 0.0 0.9 0.00 0.00 0.00 78 1014.6
20260507224525 50 210 0.0 0.9 0.00 0.00 0.00 78 1014.6
20260507224005 50 214 0.0 0.9 0.00 0.00 0.00 79 1014.6
20260507223504 49 218 0.0 0.9 0.00 0.00 0.00 80 1014.7
20260507223004 49 207 0.0 0.9 0.00 0.00 0.00 80 1014.7
20260507222525 49 0 0.0 0.0 0.00 0.00 0.00 80 1014.7
20260507222025 49 0 0.0 0.0 0.00 0.00 0.00 80 1014.7
20260507221504 50 0 0.0 0.0 0.00 0.00 0.00 80 1014.8
20260507221025 50 0 0.0 0.0 0.00 0.00 0.00 80 1014.8
20260507220504 50 0 0.0 0.0 0.00 0.00 0.00 79 1014.8
20260507220004 50 0 0.0 0.0 0.00 0.00 0.00 79 1014.8
20260507215504 50 0 0.0 0.0 0.00 0.00 0.00 80 1014.8
20260507215004 50 0 0.0 0.0 0.00 0.00 0.00 80 1014.8
20260507214504 50 0 0.0 0.0 0.00 0.00 0.00 80 1014.7
20260507214025 50 0 0.0 0.0 0.00 0.00 0.00 81 1014.8
20260507213504 49 0 0.0 0.0 0.00 0.00 0.00 81 1014.9
20260507213004 49 0 0.0 0.0 0.00 0.00 0.00 81 1014.9
20260507212504 49 0 0.0 0.0 0.00 0.00 0.00 81 1014.8
20260507212004 49 0 0.0 0.0 0.00 0.00 0.00 81 1014.9
20260507211504 49 0 0.0 0.0 0.00 0.00 0.00 82 1014.9
20260507211004 49 0 0.0 0.0 0.00 0.00 0.00 82 1014.8
20260507210504 50 0 0.0 0.0 0.00 0.00 0.00 82 1014.7
20260507210005 50 0 0.0 0.0 0.00 0.00 0.00 83 1014.7
20260507205504 50 0 0.0 0.0 0.00 0.00 0.00 84 1014.7
20260507205004 50 0 0.0 0.0 0.00 0.00 0.00 85 1014.7
20260507204504 50 0 0.0 0.0 0.00 0.00 0.00 85 1014.6
20260507204004 50 0 0.0 0.0 0.00 0.00 0.00 85 1014.6
20260507203525 50 0 0.0 0.0 0.00 0.00 0.00 85 1014.6
20260507203025 50 0 0.0 0.0 0.00 0.00 0.00 85 1014.5
20260507202504 50 0 0.0 0.0 0.00 0.00 0.00 84 1014.4
20260507202004 50 0 0.0 0.0 0.00 0.00 0.00 84 1014.4
20260507201504 51 0 0.0 0.0 0.00 0.00 0.00 84 1014.3
20260507201025 51 0 0.0 0.0 0.00 0.00 0.00 83 1014.3
20260507200525 51 0 0.0 0.0 0.00 0.00 0.00 83 1014.2
20260507200004 51 0 0.0 0.0 0.00 0.00 0.00 82 1014.3
20260507195504 51 80 0.0 0.9 0.00 0.00 0.00 82 1014.2
20260507195004 51 80 0.0 0.9 0.00 0.00 0.00 82 1014.2
20260507194504 52 0 0.0 0.0 0.00 0.00 0.00 82 1014.2
20260507194004 52 218 0.0 0.9 0.00 0.00 0.00 82 1014.2
20260507193504 52 214 0.0 0.9 0.00 0.00 0.00 82 1014.2
20260507193004 52 128 0.0 0.9 0.00 0.00 0.00 81 1014.1
20260507192504 52 87 0.0 0.9 0.00 0.00 0.00 81 1014.2
20260507192025 52 0 0.0 0.0 0.00 0.00 0.00 80 1014.1
20260507191504 52 0 0.0 0.0 0.00 0.00 0.00 80 1014.1
20260507191004 52 0 0.0 0.0 0.00 0.00 0.00 80 1014.1
20260507190525 52 0 0.0 0.0 0.00 0.00 0.00 79 1014.1
20260507190005 52 0 0.0 0.0 0.00 0.00 0.00 80 1014.1
20260507185504 52 0 0.0 0.0 0.00 0.00 0.00 80 1014.1
20260507185004 52 0 0.0 0.0 0.00 0.00 0.00 81 1014.0
20260507184504 52 0 0.0 0.0 0.00 0.00 0.00 80 1014.0
20260507184004 52 0 0.0 0.0 0.00 0.00 0.00 80 1014.1
20260507183504 53 0 0.0 0.0 0.00 0.00 0.00 80 1014.2
20260507183004 53 87 0.0 0.9 0.00 0.00 0.00 80 1014.2
20260507182504 53 87 0.0 0.9 0.00 0.00 0.00 80 1014.1
20260507182004 53 0 0.0 0.0 0.00 0.00 0.00 80 1014.1
20260507181504 53 0 0.0 0.0 0.00 0.00 0.00 81 1014.1
20260507181004 53 0 0.0 0.0 0.00 0.00 0.00 81 1014.1
20260507180504 53 0 0.0 0.0 0.00 0.00 0.00 81 1014.1
20260507180004 53 0 0.0 0.0 0.00 0.00 0.00 81 1014.1
20260507175503 53 87 0.0 0.9 0.00 0.00 0.00 82 1014.1
20260507175004 53 87 0.0 0.9 0.00 0.00 0.00 82 1014.0
20260507174503 53 87 0.0 0.9 0.00 0.00 0.00 82 1014.1
20260507174004 53 87 0.0 0.9 0.00 0.00 0.00 82 1014.1
20260507173504 53 91 0.0 0.9 0.00 0.00 0.00 82 1014.1
20260507173004 53 88 0.0 0.9 0.00 0.00 0.00 81 1014.1
20260507172503 54 83 0.0 0.9 0.00 0.00 0.00 81 1014.1
20260507172003 54 86 0.0 0.9 0.00 0.00 0.00 80 1014.1
20260507171503 54 87 0.0 0.9 0.00 0.00 0.00 81 1014.1
20260507171004 54 88 0.0 0.9 0.00 0.00 0.00 80 1014.1
20260507170525 54 90 0.0 0.9 0.00 0.00 0.00 80 1014.1
20260507170004 54 91 0.0 0.9 0.00 0.00 0.00 79 1014.2
20260507165504 54 82 0.0 0.9 0.00 0.00 0.00 78 1014.1
20260507165004 54 83 0.0 0.9 0.00 0.00 0.00 79 1014.2
20260507164503 54 87 0.0 0.9 0.00 0.00 0.00 79 1014.2
20260507164024 54 112 0.0 0.9 0.00 0.00 0.00 80 1014.2
20260507163503 54 101 0.0 0.9 0.00 0.00 0.00 80 1014.2
20260507163003 54 90 0.0 0.9 0.00 0.00 0.00 80 1014.2
20260507162524 54 83 0.0 0.9 0.00 0.00 0.00 81 1014.1
20260507162003 54 92 0.0 0.9 0.00 0.00 0.00 81 1014.2
20260507161503 54 89 0.0 0.9 0.00 0.00 0.00 82 1014.2
20260507161003 53 83 0.0 0.9 0.00 0.00 0.00 82 1014.2
20260507160504 54 75 0.0 0.9 0.00 0.00 0.00 82 1014.2
20260507160004 54 75 0.0 0.9 0.00 0.00 0.00 83 1014.2
20260507155503 54 89 0.0 0.9 0.00 0.00 0.00 83 1014.2
20260507155003 54 71 0.0 0.9 0.00 0.00 0.00 83 1014.3
20260507154504 54 73 0.0 0.9 0.00 0.00 0.00 82 1014.2
20260507154025 54 97 0.0 0.9 0.00 0.00 0.00 81 1014.2
20260507153504 54 98 0.0 0.9 0.00 0.00 0.00 79 1014.2
20260507153004 54 98 0.0 0.9 0.00 0.00 0.00 79 1014.2
20260507152524 54 96 0.0 0.9 0.00 0.00 0.00 79 1014.3
20260507152004 55 61 0.0 0.9 0.00 0.00 0.00 78 1014.2
20260507151504 55 45 0.0 0.9 0.00 0.00 0.00 78 1014.3
20260507151003 55 81 0.0 0.9 0.00 0.00 0.00 77 1014.3
20260507150524 55 86 0.0 0.9 0.00 0.00 0.00 76 1014.3
20260507150024 55 106 0.0 0.9 0.00 0.00 0.00 80 1014.2
20260507145503 55 104 0.0 0.9 0.00 0.00 0.00 81 1014.3
20260507145024 54 98 0.0 0.9 0.00 0.00 0.00 81 1014.2
20260507144503 54 95 0.0 0.9 0.00 0.00 0.00 81 1014.3
20260507144003 54 100 0.0 0.9 0.00 0.00 0.00 80 1014.4
20260507143503 54 104 0.0 0.9 0.00 0.00 0.00 83 1014.5
20260507143004 54 97 0.0 0.9 0.00 0.00 0.00 83 1014.4
20260507142503 53 81 0.0 1.7 0.00 0.00 0.00 83 1014.5
20260507142003 53 78 0.0 1.7 0.00 0.00 0.00 83 1014.6
20260507141527 53 84 0.0 1.7 0.00 0.00 0.00 83 1014.7
20260507141007 53 92 0.0 0.9 0.00 0.00 0.00 82 1014.8
20260507140506 54 90 0.0 1.7 0.00 0.00 0.00 83 1014.8
20260507140006 54 90 0.0 1.7 0.00 0.00 0.00 82 1014.7
20260507135507 54 93 0.0 0.9 0.00 0.00 0.00 82 1014.7
20260507135028 54 93 0.0 0.9 0.00 0.00 0.00 81 1014.6
20260507134506 54 90 0.0 1.7 0.00 0.00 0.00 81 1014.6
20260507134006 54 91 0.0 1.7 0.00 0.00 0.00 80 1014.6
20260507133507 54 96 0.0 1.7 0.00 0.00 0.00 78 1014.6
20260507133007 55 99 0.0 2.6 0.00 0.00 0.00 77 1014.5
20260507132527 55 95 0.0 2.6 0.00 0.00 0.00 76 1014.5
20260507132007 55 118 0.0 0.9 0.00 0.00 0.00 75 1014.5
20260507131527 56 110 0.0 0.9 0.00 0.00 0.00 74 1014.5
20260507131007 56 97 0.0 1.7 0.00 0.00 0.00 73 1014.5
20260507130512 56 91 0.9 2.6 0.00 0.00 0.00 73 1014.5
20260507130028 57 94 0.9 2.6 0.00 0.00 0.00 72 1014.5
20260507125506 57 95 0.0 1.7 0.00 0.00 0.00 70 1014.4
20260507125006 58 97 0.0 1.7 0.00 0.00 0.00 70 1014.5
20260507124506 58 121 0.0 1.7 0.00 0.00 0.00 69 1014.4
20260507124007 58 114 0.0 1.7 0.00 0.00 0.00 67 1014.4
20260507123506 59 96 0.0 2.6 0.00 0.00 0.00 67 1014.4
20260507123006 60 89 0.9 2.6 0.00 0.00 0.00 67 1014.4
20260507122506 61 98 0.9 2.6 0.00 0.00 0.00 66 1014.4
20260507122006 62 123 0.9 2.6 0.00 0.00 0.00 56 1014.4
20260507121506 62 172 0.9 2.6 0.00 0.00 0.00 54 1014.3
20260507121027 62 164 0.9 6.1 0.00 0.00 0.00 55 1014.4
20260507120506 61 174 0.9 6.1 0.00 0.00 0.00 56 1014.3
20260507120027 61 160 0.9 3.5 0.00 0.00 0.00 56 1014.4
20260507115506 60 144 0.9 3.5 0.00 0.00 0.00 55 1014.4
20260507115007 61 152 0.9 2.6 0.00 0.00 0.00 60 1014.4
20260507114527 60 137 0.9 2.6 0.00 0.00 0.00 60 1014.3
20260507114006 60 121 0.9 3.5 0.00 0.00 0.00 60 1014.4
20260507113506 60 149 0.9 3.5 0.00 0.00 0.00 58 1014.4
20260507113006 61 180 0.9 3.5 0.00 0.00 0.00 60 1014.4
20260507112506 60 175 0.9 4.3 0.00 0.00 0.00 58 1014.4
20260507112006 60 153 0.9 4.3 0.00 0.00 0.00 58 1014.4
20260507111507 60 157 0.9 3.5 0.00 0.00 0.00 58 1014.4
20260507111006 61 168 0.9 3.5 0.00 0.00 0.00 58 1014.5
20260507110527 61 185 0.9 3.5 0.00 0.00 0.00 57 1014.4
20260507110006 60 155 0.9 5.2 0.00 0.00 0.00 57 1014.4
20260507105506 60 120 0.9 5.2 0.00 0.00 0.00 59 1014.4
20260507105006 61 128 0.9 5.2 0.00 0.00 0.00 58 1014.4
20260507104507 61 197 0.0 3.5 0.00 0.00 0.00 60 1014.4
20260507104027 61 168 0.9 3.5 0.00 0.00 0.00 59 1014.4
20260507103506 61 166 0.9 3.5 0.00 0.00 0.00 58 1014.4
20260507103006 62 175 1.7 4.3 0.00 0.00 0.00 57 1014.5
20260507102506 62 153 1.7 5.2 0.00 0.00 0.00 57 1014.5
20260507102007 62 167 0.9 5.2 0.00 0.00 0.00 57 1014.5
20260507101507 62 177 0.0 2.6 0.00 0.00 0.00 58 1014.5
20260507101006 61 134 0.9 2.6 0.00 0.00 0.00 60 1014.5
20260507100506 61 187 1.7 4.3 0.00 0.00 0.00 59 1014.5
20260507100006 61 181 1.7 7.8 0.00 0.00 0.00 57 1014.5
20260507095506 61 161 0.9 7.8 0.00 0.00 0.00 59 1014.4
20260507095006 61 190 0.9 3.5 0.00 0.00 0.00 60 1014.4
20260507094506 61 200 0.9 6.1 0.00 0.00 0.00 61 1014.4
20260507094006 61 182 0.9 6.1 0.00 0.00 0.00 60 1014.4
20260507093527 61 159 0.9 6.1 0.00 0.00 0.00 61 1014.4
20260507093006 61 171 0.9 6.1 0.00 0.00 0.00 63 1014.4
20260507092506 61 180 0.9 3.5 0.00 0.00 0.00 64 1014.3
20260507092027 60 160 0.9 3.5 0.00 0.00 0.00 64 1014.3
20260507091506 60 150 0.9 3.5 0.00 0.00 0.00 64 1014.3
20260507091006 60 167 0.9 5.2 0.00 0.00 0.00 65 1014.2
20260507090506 60 163 0.9 5.2 0.00 0.00 0.00 65 1014.3
20260507090006 59 167 0.9 5.2 0.00 0.00 0.00 65 1014.2
20260507085506 60 180 0.9 5.2 0.00 0.00 0.00 66 1014.3
20260507085006 59 174 0.9 6.1 0.00 0.00 0.00 66 1014.3
20260507084506 59 177 1.7 6.1 0.00 0.00 0.00 66 1014.3
20260507084006 59 181 1.7 5.2 0.00 0.00 0.00 66 1014.3
20260507083506 59 167 0.9 5.2 0.00 0.00 0.00 67 1014.3
20260507083027 59 193 0.9 6.1 0.00 0.00 0.00 65 1014.2
20260507082527 58 187 0.9 6.1 0.00 0.00 0.00 69 1014.3
20260507082005 58 184 0.9 4.3 0.00 0.00 0.00 67 1014.3
20260507081505 58 186 1.7 4.3 0.00 0.00 0.00 69 1014.3
20260507081006 58 185 0.9 4.3 0.00 0.00 0.00 67 1014.3
20260507080505 57 200 0.9 3.5 0.00 0.00 0.00 70 1014.2
20260507080006 56 202 1.7 6.1 0.00 0.00 0.00 71 1014.3
20260507075506 56 192 1.7 9.6 0.00 0.00 0.00 71 1014.3
20260507075006 56 188 1.7 9.6 0.00 0.00 0.00 71 1014.2
20260507074505 56 186 1.7 5.2 0.00 0.00 0.00 72 1014.2
20260507074005 55 189 1.7 4.3 0.00 0.00 0.00 73 1014.2
20260507073506 55 185 1.7 4.3 0.00 0.00 0.00 73 1014.2
20260507073006 55 187 1.7 5.2 0.00 0.00 0.00 73 1014.2
20260507072506 55 181 1.7 5.2 0.00 0.00 0.00 74 1014.2
20260507072006 54 150 0.9 4.3 0.00 0.00 0.00 76 1014.2
20260507071505 53 150 0.9 4.3 0.00 0.00 0.00 78 1014.2
20260507071006 52 153 0.9 5.2 0.00 0.00 0.00 80 1014.1
20260507070505 52 155 0.9 5.2 0.00 0.00 0.00 81 1014.2
20260507070010 51 158 0.0 2.6 0.00 0.00 0.00 82 1014.1
20260507065505 51 207 0.9 1.7 0.00 0.00 0.00 84 1014.1
20260507065005 50 188 0.9 1.7 0.00 0.00 0.00 84 1014.0
20260507064506 50 84 0.0 1.7 0.00 0.00 0.00 85 1014.0
20260507064006 50 73 0.0 1.7 0.00 0.00 0.00 85 1014.0
20260507063526 50 77 0.0 1.7 0.00 0.00 0.00 85 1014.0
20260507063006 50 84 0.0 2.6 0.00 0.00 0.00 85 1014.0
20260507062506 50 82 0.9 2.6 0.00 0.00 0.00 84 1014.0
20260507062006 50 83 0.0 2.6 0.00 0.00 0.00 84 1014.1
20260507061526 49 83 0.0 3.5 0.00 0.00 0.00 84 1014.1
20260507061005 49 81 0.9 3.5 0.00 0.00 0.00 84 1014.1
20260507060505 49 79 0.9 2.6 0.00 0.00 0.00 83 1014.1
20260507060005 49 82 0.0 1.7 0.00 0.00 0.00 84 1014.0
20260507055505 49 87 0.0 2.6 0.00 0.00 0.00 84 1014.0
20260507055006 49 83 0.9 2.6 0.00 0.00 0.00 84 1014.0
20260507054505 48 85 0.9 1.7 0.00 0.00 0.00 84 1014.1
20260507054026 48 86 0.9 3.5 0.00 0.00 0.00 84 1014.1
20260507053506 48 83 0.9 3.5 0.00 0.00 0.00 84 1014.1
20260507053026 48 81 0.0 3.5 0.00 0.00 0.00 84 1014.0
20260507052505 48 70 0.0 0.9 0.00 0.00 0.00 84 1014.1
20260507052005 47 89 0.0 1.7 0.00 0.00 0.00 84 1014.1
20260507051505 47 103 0.0 1.7 0.00 0.00 0.00 84 1014.0
20260507051005 47 212 0.0 0.9 0.00 0.00 0.00 84 1014.0
20260507050526 47 199 0.0 0.9 0.00 0.00 0.00 83 1014.0
20260507050006 48 203 0.0 1.7 0.00 0.00 0.00 83 1014.0
20260507045505 48 208 0.0 1.7 0.00 0.00 0.00 82 1013.9
20260507045005 48 208 0.0 0.9 0.00 0.00 0.00 82 1013.9
20260507044526 48 209 0.0 0.9 0.00 0.00 0.00 82 1013.9
20260507044005 48 211 0.0 0.9 0.00 0.00 0.00 81 1013.8
20260507043505 48 213 0.0 0.9 0.00 0.00 0.00 81 1013.8
20260507043005 48 215 0.0 1.7 0.00 0.00 0.00 81 1013.8
20260507042527 49 213 0.9 1.7 0.00 0.00 0.00 80 1013.8
20260507042005 48 208 0.0 1.7 0.00 0.00 0.00 81 1013.8
20260507041505 48 204 0.0 1.7 0.00 0.00 0.00 81 1013.8
20260507041005 48 211 0.0 1.7 0.00 0.00 0.00 81 1013.8
20260507040505 48 212 0.0 1.7 0.00 0.00 0.00 81 1013.8
20260507040005 48 212 0.0 0.9 0.00 0.00 0.00 81 1013.8
20260507035505 48 212 0.0 0.9 0.00 0.00 0.00 81 1013.8
20260507035005 48 213 0.0 0.9 0.00 0.00 0.00 81 1013.8
20260507034505 48 212 0.0 0.9 0.00 0.00 0.00 82 1013.8
20260507034005 48 212 0.0 0.9 0.00 0.00 0.00 82 1013.8
20260507033505 48 211 0.0 0.9 0.00 0.00 0.00 82 1013.8
20260507033026 48 209 0.0 0.9 0.00 0.00 0.00 82 1013.8
20260507032505 48 209 0.0 0.9 0.00 0.00 0.00 82 1013.7
20260507032005 48 90 0.0 1.7 0.00 0.00 0.00 81 1013.7
20260507031505 48 175 0.9 1.7 0.00 0.00 0.00 82 1013.8
20260507031005 48 203 0.9 1.7 0.00 0.00 0.00 82 1013.8
20260507030505 48 202 0.0 1.7 0.00 0.00 0.00 82 1013.8
20260507030005 48 210 0.0 0.9 0.00 0.00 0.00 82 1013.7
20260507025526 48 211 0.0 0.9 0.00 0.00 0.00 81 1013.8